Location: Jackson
(42.2460°N, 84.4010°W)
Time: 10:42:31
(UTC-04:00)

Injun/Solrad 3 - Pass Details

Date: 13 February 2026
Orbit: 871 x 985 km, 66.8° (Epoch: 16 March)

Event Time Altitude Azimuth Distance (km) Brightness Sun altitude
Rises 21:03:26 0° 333° (NNW) 3,565 11.5 -32.9°
Reaches altitude 10° 21:06:01 10° 338° (NNW) 2,636 10.6 -33.4°
Enters shadow 21:08:59 28° 353° (N) 1,672 9.3 -33.9°
